KT2UU-13 Weather Reports


time (UTC)temp
C
wind
direction
speed
KPH
gust
KPH
rain 1hr
cm
rain 24hr
cm
rain mn
cm
humidity
%
barometer
mb
20260506125135 19 141 0.0 1.6 0.00 0.00 0.00 84 1015.1
20260506124633 19 141 0.0 0.0 0.00 0.00 0.00 84 1014.9
20260506124131 19 137 0.0 1.6 0.00 0.00 0.00 84 1014.8
20260506123628 19 152 1.6 3.2 0.00 0.00 0.00 83 1014.9
20260506123127 19 143 0.0 0.0 0.00 0.00 0.00 84 1014.6
20260506122623 19 153 0.0 1.6 0.00 0.00 0.00 84 1014.7
20260506122121 19 138 0.0 0.0 0.00 0.00 0.00 83 1014.6
20260506121618 19 138 0.0 0.0 0.00 0.00 0.00 83 1014.6
20260506121114 19 138 0.0 0.0 0.00 0.00 0.00 83 1014.6
20260506120613 19 138 0.0 0.0 0.00 0.00 0.00 83 1014.7
20260506120110 19 137 0.0 0.0 0.00 0.00 0.00 83 1014.7
20260506115608 19 137 0.0 0.0 0.00 0.00 0.00 83 1014.7
20260506115106 19 140 0.0 0.0 0.00 0.00 0.00 82 1014.5
20260506114603 19 140 0.0 0.0 0.00 0.00 0.00 82 1014.6
20260506114101 19 139 0.0 1.6 0.00 0.00 0.00 82 1014.5
20260506113558 19 138 0.0 0.0 0.00 0.00 0.00 82 1014.4
20260506113055 19 138 0.0 0.0 0.00 0.00 0.00 81 1014.6
20260506112552 19 138 0.0 0.0 0.00 0.00 0.00 82 1014.5
20260506112049 19 138 0.0 0.0 0.00 0.00 0.00 82 1014.4
20260506111547 19 138 0.0 0.0 0.00 0.00 0.00 81 1014.3
20260506111044 19 138 0.0 0.0 0.00 0.00 0.00 81 1014.1
20260506110542 19 138 0.0 0.0 0.00 0.00 0.00 81 1014.2
20260506110039 19 138 0.0 0.0 0.00 0.00 0.00 82 1014.2
20260506105535 19 138 0.0 0.0 0.00 0.00 0.00 82 1013.8
20260506105032 19 138 0.0 0.0 0.00 0.00 0.00 81 1013.7
20260506104530 19 138 0.0 0.0 0.00 0.00 0.00 81 1013.7
20260506104028 19 138 0.0 0.0 0.00 0.00 0.00 82 1013.7
20260506103525 19 137 0.0 0.0 0.00 0.00 0.00 82 1013.5
20260506103021 19 137 0.0 0.0 0.00 0.00 0.00 82 1013.6
20260506102520 19 138 0.0 0.0 0.00 0.00 0.00 81 1013.7
20260506102011 19 137 0.0 0.0 0.00 0.00 0.00 81 1013.5
20260506101508 19 137 0.0 0.0 0.00 0.00 0.00 80 1013.7
20260506101005 19 138 0.0 0.0 0.00 0.00 0.00 80 1013.7
20260506100503 19 137 0.0 0.0 0.00 0.00 0.00 80 1013.8
20260506100001 19 137 0.0 0.0 0.00 0.00 0.00 80 1013.6
20260506095500 19 147 0.0 0.0 0.00 0.00 0.00 80 1013.5
20260506094955 19 141 0.0 1.6 0.00 0.00 0.00 80 1013.6
20260506094454 19 140 0.0 0.0 0.00 0.00 0.00 80 1013.7
20260506093951 19 154 0.0 0.0 0.00 0.00 0.00 80 1013.4
20260506093449 19 140 0.0 1.6 0.00 0.00 0.00 80 1013.2
20260506092946 19 142 0.0 0.0 0.00 0.00 0.00 79 1013.4
20260506092444 19 140 1.6 1.6 0.00 0.00 0.00 79 1013.1
20260506091940 19 141 0.0 0.0 0.00 0.00 0.00 79 1013.2
20260506091439 19 141 0.0 1.6 0.00 0.00 0.00 79 1013.0
20260506090936 19 143 1.6 3.2 0.00 0.00 0.00 79 1013.1
20260506090434 19 152 0.0 1.6 0.00 0.00 0.00 79 1013.0
20260506085930 19 152 0.0 1.6 0.00 0.00 0.00 79 1013.1
20260506085427 19 152 0.0 1.6 0.00 0.00 0.00 79 1013.0
20260506084923 19 152 0.0 0.0 0.00 0.00 0.00 79 1013.0
20260506084420 18 147 0.0 0.0 0.00 0.00 0.00 80 1012.9
20260506083916 18 147 0.0 0.0 0.00 0.00 0.00 79 1012.9
20260506083414 18 147 0.0 0.0 0.00 0.00 0.00 79 1013.0
20260506082911 18 147 0.0 0.0 0.00 0.00 0.00 78 1013.0
20260506082408 18 147 0.0 0.0 0.00 0.00 0.00 78 1013.0
20260506081903 18 147 0.0 0.0 0.00 0.00 0.00 78 1013.2
20260506081402 18 147 0.0 0.0 0.00 0.00 0.00 78 1012.9
20260506080859 18 147 0.0 0.0 0.00 0.00 0.00 79 1013.2
20260506080355 18 147 0.0 0.0 0.00 0.00 0.00 78 1013.1
20260506073339 18 147 0.0 0.0 0.00 0.00 0.00 76 1013.1
20260506072836 18 147 0.0 0.0 0.00 0.00 0.00 76 1013.1
20260506072334 19 147 0.0 0.0 0.00 0.00 0.00 74 1013.3
20260506071831 19 147 0.0 0.0 0.00 0.00 0.00 74 1013.1
20260506071329 19 147 0.0 0.0 0.00 0.00 0.00 73 1013.4
20260506070820 19 146 0.0 1.6 0.00 0.00 0.00 72 1013.2
20260506070317 19 145 0.0 1.6 0.00 0.00 0.00 71 1013.1
20260506062254 20 112 0.0 1.6 0.00 0.00 0.00 66 1013.7
20260506061750 20 112 0.0 1.6 0.00 0.00 0.00 65 1013.7
20260506061247 20 115 0.0 1.6 0.00 0.00 0.00 64 1013.8
20260506060746 20 118 0.0 1.6 0.00 0.00 0.00 64 1013.8
20260506060243 21 118 0.0 1.6 0.00 0.00 0.00 62 1014.2
20260506051209 21 121 0.0 1.6 0.00 0.00 0.00 57 1014.1
20260506050707 21 98 0.0 0.0 0.00 0.00 0.00 57 1014.1
20260506050204 21 94 0.0 0.0 0.00 0.00 0.00 57 1014.0
20260506044655 21 99 1.6 3.2 0.00 0.00 0.00 55 1014.1
20260506044151 21 351 1.6 1.6 0.00 0.00 0.00 57 1014.2
20260506043649 21 83 0.0 1.6 0.00 0.00 0.00 56 1013.9
20260506043147 21 11 1.6 3.2 0.00 0.00 0.00 56 1013.8
20260506042646 21 24 1.6 1.6 0.00 0.00 0.00 56 1013.9
20260506042143 21 20 0.0 1.6 0.00 0.00 0.00 55 1014.1
20260506041642 21 257 0.0 0.0 0.00 0.00 0.00 55 1013.9
20260506041138 21 258 0.0 1.6 0.00 0.00 0.00 56 1014.2
20260506040636 21 258 0.0 3.2 0.00 0.00 0.00 55 1014.2
20260506040132 21 39 0.0 3.2 0.00 0.00 0.00 55 1014.2
20260506035629 21 30 0.0 0.0 0.00 0.00 0.00 55 1014.2
20260506035125 21 356 1.6 1.6 0.00 0.00 0.00 55 1014.4
20260506034623 21 24 0.0 1.6 0.00 0.00 0.00 55 1014.1
20260506034120 21 20 0.0 0.0 0.00 0.00 0.00 55 1014.0
20260506033617 21 20 0.0 1.6 0.00 0.00 0.00 56 1013.9
20260506033114 21 20 0.0 1.6 0.00 0.00 0.00 56 1013.8
20260506032606 21 20 0.0 3.2 0.00 0.00 0.00 55 1013.5
20260506032103 21 45 0.0 1.6 0.00 0.00 0.00 55 1013.7
20260506031600 21 89 0.0 0.0 0.00 0.00 0.00 56 1014.0
20260506031056 21 90 0.0 0.0 0.00 0.00 0.00 55 1014.2
20260506030555 21 124 0.0 1.6 0.00 0.00 0.00 54 1014.3
20260506030052 21 103 0.0 1.6 0.00 0.00 0.00 54 1014.4
20260506025549 21 43 0.0 1.6 0.00 0.00 0.00 54 1014.5
20260506025045 21 43 0.0 0.0 0.00 0.00 0.00 55 1014.4
20260506024542 21 54 0.0 0.0 0.00 0.00 0.00 55 1014.4
20260506024038 21 43 0.0 0.0 0.00 0.00 0.00 56 1014.4
20260506023534 21 43 0.0 0.0 0.00 0.00 0.00 56 1014.2
20260506023032 21 43 0.0 0.0 0.00 0.00 0.00 56 1014.3
20260506022529 21 43 0.0 0.0 0.00 0.00 0.00 56 1014.1
20260506022027 21 43 0.0 0.0 0.00 0.00 0.00 55 1014.2
20260506021524 21 54 0.0 0.0 0.00 0.00 0.00 55 1014.0
20260506021021 21 43 0.0 0.0 0.00 0.00 0.00 55 1013.9
20260506020519 21 43 0.0 0.0 0.00 0.00 0.00 56 1013.8
20260506020016 21 43 0.0 1.6 0.00 0.00 0.00 55 1013.9
20260506015513 21 43 0.0 0.0 0.00 0.00 0.00 55 1013.7
20260506015010 21 58 0.0 0.0 0.00 0.00 0.00 54 1013.8
20260506014508 21 58 0.0 0.0 0.00 0.00 0.00 54 1013.8
20260506014003 21 58 0.0 0.0 0.00 0.00 0.00 54 1013.7
20260506013502 21 83 0.0 1.6 0.00 0.00 0.00 53 1013.7
20260506012957 21 128 0.0 0.0 0.00 0.00 0.00 52 1014.0
20260506012454 22 128 0.0 0.0 0.00 0.00 0.00 53 1014.0
20260506011951 22 132 0.0 1.6 0.00 0.00 0.00 50 1013.8
20260506011448 22 121 0.0 0.0 0.00 0.00 0.00 51 1013.8
20260506010945 22 121 0.0 1.6 0.00 0.00 0.00 51 1013.7
20260506010444 22 131 0.0 0.0 0.00 0.00 0.00 50 1013.7
20260506005939 22 131 0.0 0.0 0.00 0.00 0.00 50 1013.5
20260506005438 22 131 0.0 0.0 0.00 0.00 0.00 49 1013.7
20260506004932 22 63 0.0 0.0 0.00 0.00 0.00 50 1013.6
20260506004431 22 136 0.0 1.6 0.00 0.00 0.00 48 1013.4
20260506003927 22 102 0.0 1.6 0.00 0.00 0.00 49 1013.5
20260506003423 21 109 0.0 0.0 0.00 0.00 0.00 50 1013.5
20260506002920 21 109 0.0 1.6 0.00 0.00 0.00 49 1013.4
20260506002416 21 109 0.0 1.6 0.00 0.00 0.00 49 1013.6
20260506001911 22 109 0.0 0.0 0.00 0.00 0.00 49 1013.4
20260506001409 22 109 0.0 0.0 0.00 0.00 0.00 49 1013.5
20260506000906 22 110 0.0 1.6 0.00 0.00 0.00 48 1013.4
20260506000404 22 88 0.0 0.0 0.00 0.00 0.00 47 1013.5
20260505235900 22 88 0.0 0.0 0.00 0.00 0.00 50 1013.5
20260505235358 22 106 0.0 0.0 0.00 0.00 0.00 49 1013.4
20260505234855 22 106 0.0 0.0 0.00 0.00 0.00 48 1013.5
20260505234352 23 105 0.0 0.0 0.00 0.00 0.00 48 1013.6
20260505233849 23 105 0.0 0.0 0.00 0.00 0.00 48 1013.4
20260505233347 23 105 0.0 0.0 0.00 0.00 0.00 47 1013.6
20260505232844 24 105 0.0 0.0 0.00 0.00 0.00 46 1013.9
20260505232342 24 105 0.0 0.0 0.00 0.00 0.00 45 1013.8
20260505231838 24 105 0.0 0.0 0.00 0.00 0.00 44 1013.6
20260505231336 24 99 0.0 1.6 0.00 0.00 0.00 44 1013.6
20260505230834 24 99 0.0 3.2 0.00 0.00 0.00 44 1013.6
20260505230331 25 128 0.0 1.6 0.00 0.00 0.00 43 1013.7
20260505225827 25 107 0.0 0.0 0.00 0.00 0.00 43 1013.7
20260505225325 25 116 0.0 1.6 0.00 0.00 0.00 43 1013.6
20260505224820 25 54 0.0 0.0 0.00 0.00 0.00 42 1013.6
20260505224318 25 117 0.0 0.0 0.00 0.00 0.00 44 1013.7
20260505223815 23 106 0.0 0.0 0.00 0.00 0.00 49 1013.7
20260505223312 23 106 0.0 0.0 0.00 0.00 0.00 48 1013.8
20260505222807 23 352 0.0 0.0 0.00 0.00 0.00 47 1013.8
20260505222305 23 352 1.6 1.6 0.00 0.00 0.00 45 1013.6
20260505221801 24 352 0.0 0.0 0.00 0.00 0.00 46 1013.6
20260505221257 23 352 0.0 0.0 0.00 0.00 0.00 46 1013.6
20260505220754 24 352 0.0 0.0 0.00 0.00 0.00 45 1013.7
20260505220252 24 352 0.0 0.0 0.00 0.00 0.00 42 1013.8
20260505215750 24 352 0.0 0.0 0.00 0.00 0.00 43 1013.8
20260505215247 24 83 0.0 0.0 0.00 0.00 0.00 44 1013.8
20260505214745 24 8 0.0 1.6 0.00 0.00 0.00 44 1013.9
20260505214242 24 106 0.0 1.6 0.00 0.00 0.00 40 1014.1
20260505213739 24 139 0.0 0.0 0.00 0.00 0.00 43 1013.9
20260505213236 24 92 1.6 1.6 0.00 0.00 0.00 41 1014.0
20260505212732 24 92 0.0 1.6 0.00 0.00 0.00 41 1013.7
20260505212230 24 182 0.0 1.6 0.00 0.00 0.00 42 1013.5
20260505211727 24 121 0.0 0.0 0.00 0.00 0.00 42 1013.7
20260505211224 25 135 3.2 3.2 0.00 0.00 0.00 40 1013.6
20260505210720 24 115 0.0 1.6 0.00 0.00 0.00 40 1013.6
20260505210217 24 157 0.0 1.6 0.00 0.00 0.00 41 1013.7
20260505205715 25 107 0.0 1.6 0.00 0.00 0.00 41 1013.7
20260505205213 25 64 1.6 4.8 0.00 0.00 0.00 39 1013.8
20260505204708 25 91 0.0 9.7 0.00 0.00 0.00 40 1014.0
20260505204206 25 133 1.6 3.2 0.00 0.00 0.00 39 1013.9
20260505203658 25 97 1.6 3.2 0.00 0.00 0.00 40 1014.2
20260505203155 26 77 0.0 3.2 0.00 0.00 0.00 40 1014.0
20260505202650 26 323 3.2 11.3 0.00 0.00 0.00 39 1014.1
20260505202147 26 94 3.2 3.2 0.00 0.00 0.00 38 1014.4
20260505201643 26 336 0.0 1.6 0.00 0.00 0.00 41 1014.3
20260505201141 26 2 1.6 4.8 0.00 0.00 0.00 41 1014.4
20260505200639 25 123 3.2 3.2 0.00 0.00 0.00 40 1014.5
20260505200136 26 123 0.0 4.8 0.00 0.00 0.00 40 1014.4
20260505195632 25 190 4.8 4.8 0.00 0.00 0.00 38 1014.4
20260505195129 25 128 3.2 3.2 0.00 0.00 0.00 39 1014.5
20260505194626 26 64 1.6 9.7 0.00 0.00 0.00 36 1014.6
20260505194122 25 109 0.0 1.6 0.00 0.00 0.00 43 1014.5
20260505193619 25 123 1.6 6.4 0.00 0.00 0.00 40 1014.5
20260505193116 25 110 1.6 4.8 0.00 0.00 0.00 39 1014.9
20260505192615 25 135 3.2 9.7 0.00 0.00 0.00 39 1014.9
20260505192112 25 82 0.0 3.2 0.00 0.00 0.00 41 1015.1
20260505191610 25 42 3.2 4.8 0.00 0.00 0.00 40 1015.2
20260505191108 25 61 0.0 1.6 0.00 0.00 0.00 45 1015.3
20260505190603 25 129 3.2 4.8 0.00 0.00 0.00 40 1015.4
20260505190058 26 166 0.0 3.2 0.00 0.00 0.00 41 1015.5
20260505185555 26 122 3.2 3.2 0.00 0.00 0.00 43 1015.5
20260505185052 25 225 3.2 3.2 0.00 0.00 0.00 40 1015.6
20260505184548 25 0 1.6 3.2 0.00 0.00 0.00 41 1015.6
20260505184045 25 118 1.6 3.2 0.00 0.00 0.00 42 1015.3
20260505183542 25 113 0.0 4.8 0.00 0.00 0.00 41 1015.6
20260505183040 25 85 0.0 3.2 0.00 0.00 0.00 44 1015.5
20260505182536 25 123 4.8 6.4 0.00 0.00 0.00 41 1015.5
20260505182032 25 86 1.6 4.8 0.00 0.00 0.00 40 1015.6
20260505181529 26 122 1.6 3.2 0.00 0.00 0.00 42 1015.6
20260505181027 25 113 3.2 4.8 0.00 0.00 0.00 41 1015.7
20260505180522 25 132 1.6 4.8 0.00 0.00 0.00 42 1015.6
20260505180021 25 334 0.0 4.8 0.00 0.00 0.00 44 1015.4
20260505175515 25 73 3.2 6.4 0.00 0.00 0.00 45 1015.5
20260505175012 25 59 1.6 3.2 0.00 0.00 0.00 48 1015.8
20260505174509 24 114 3.2 6.4 0.00 0.00 0.00 48 1016.0
20260505174005 25 81 1.6 9.7 0.00 0.00 0.00 48 1016.2
20260505173502 24 336 0.0 4.8 0.00 0.00 0.00 50 1016.3
20260505172958 24 101 1.6 3.2 0.00 0.00 0.00 50 1016.3
20260505172457 24 101 1.6 6.4 0.00 0.00 0.00 50 1016.3
20260505171956 23 62 0.0 0.0 0.00 0.00 0.00 52 1016.7
20260505171448 24 350 0.0 3.2 0.00 0.00 0.00 52 1016.5
20260505170944 23 3 3.2 9.7 0.00 0.00 0.00 52 1016.6
20260505170441 23 126 1.6 9.7 0.00 0.00 0.00 50 1016.5
20260505165936 23 102 1.6 4.8 0.00 0.00 0.00 50 1016.7
20260505165433 23 342 0.0 4.8 0.00 0.00 0.00 50 1016.7
20260505164928 23 19 1.6 3.2 0.00 0.00 0.00 48 1016.8
20260505164425 23 103 4.8 17.7 0.00 0.00 0.00 50 1016.5
20260505163923 23 79 1.6 4.8 0.00 0.00 0.00 47 1016.6
20260505163422 23 56 3.2 4.8 0.00 0.00 0.00 51 1016.8
20260505162920 23 144 1.6 4.8 0.00 0.00 0.00 49 1016.7
20260505162416 23 351 0.0 1.6 0.00 0.00 0.00 52 1016.5
20260505161913 23 116 1.6 3.2 0.00 0.00 0.00 51 1016.3
20260505161409 23 355 0.0 3.2 0.00 0.00 0.00 57 1016.0
20260505160907 23 45 0.0 1.6 0.00 0.00 0.00 52 1016.2
20260505160405 22 153 4.8 6.4 0.00 0.00 0.00 53 1016.3
20260505153344 21 147 4.8 4.8 0.00 0.00 0.00 60 1016.8
20260505152840 21 23 0.0 3.2 0.00 0.00 0.00 63 1017.1
20260505152338 21 2 0.0 0.0 0.00 0.00 0.00 63 1017.0
20260505151832 21 3 0.0 1.6 0.00 0.00 0.00 65 1016.8
20260505151328 21 355 0.0 0.0 0.00 0.00 0.00 61 1016.8
20260505150825 21 354 0.0 0.0 0.00 0.00 0.00 63 1016.9
20260505150322 21 352 0.0 1.6 0.00 0.00 0.00 61 1016.6
20260505140247 17 227 0.0 1.6 0.00 0.00 0.00 71 1017.1
20260505130211 16 140 1.6 1.6 0.00 0.00 0.00 75 1016.5